Location: Lugrin
(46.4033°N, 6.6674°E)
Time: 15:50:49
(UTC+00:00)

N. Korean satellite - Pass Details

Date: 27 November 2020
Orbit: 453 x 502 km, 97.2° (Epoch: 15 January)

Event Time Altitude Azimuth Distance (km) Brightness Sun altitude
Rises 05:54:01 0° 1° (N) 2,545 10.0 -9.8°
Reaches altitude 10° 05:56:17 10° 348° (NNW) 1,670 9.0 -9.4°
Maximum altitude 05:59:19 26° 291° (WNW) 992 7.5 -8.9°
Drops below altitude 10° 06:02:22 10° 234° (SW) 1,681 9.0 -8.4°
Sets 06:04:39 0° 221° (SW) 2,565 10.0 -8.1°
